カタログに戻る

STARLINK-30447

運用中通信VLEO
NORAD 57874·PAYLOAD·🇺🇸 United States

打ち上げ Sep 16, 2023 から Cape Canaveral Space Force Station

Loading…

次のパス (今後24時間)

TLE

最新Source: CelesTrak SupGP

元期: Sep 14, 2026, 21:24 UTC

1 57874C 23144L   26257.89215278  .00018156  00000+0  65778-3 0  2572
2 57874  42.9994 270.9413 0001279 284.5794 270.0700 15.27560368    14

AllMySatでSTARLINK-30447をリアルタイム追跡

Download on the App Store